Location: Tamazert
(32.6352°N, 5.2072°W)
Time: 23:44:38
(UTC+00:00)

Altair - Pass Details

Date: 11 October 2022
Orbit: 1501 x 1682 km, 47.2° (Epoch: 05 December)

Event Time Altitude Azimuth Distance (km) Brightness Sun altitude
Exits shadow 03:21:52 61° 353° (N) 1,767 7.6 -38.2°
Drops below altitude 10° 03:30:47 10° 50° (NE) 3,872 10.2 -36.5°
Sets 03:34:02 0° 54° (NE) 4,882 11.0 -35.8°
